MBJ YMEN-YMIA

Flight info

Callsign MBJ
Flight time N/A
Altitude 20000
Route ML V376 MIA
Aircraft C25C/M-SDE2E3FGHRWXY/LB1

Departure

Time 2026-04-13 07:31
Airport Melbourne Essendon Airport (YMEN)

Arrival

Time N/A
Airport Mildura Airport (YMIA)
Time Latitude Longitude Altitude Speed Heading
2026-04-13 07:17 -37.72848 144.89509 262 ft 0 kts 189°
2026-04-13 07:25 -37.72881 144.89523 262 ft 11 kts 128°
2026-04-13 07:26 -37.72903 144.89623 263 ft 12 kts 103°
2026-04-13 07:26 -37.72926 144.89734 263 ft 13 kts 97°
2026-04-13 07:26 -37.72937 144.89855 263 ft 14 kts 98°
2026-04-13 07:26 -37.72946 144.89961 263 ft 6 kts 82°
2026-04-13 07:27 -37.72912 144.89997 263 ft 8 kts
2026-04-13 07:27 -37.72852 144.89995 263 ft 9 kts 355°
2026-04-13 07:27 -37.72791 144.90011 263 ft 9 kts 55°
2026-04-13 07:27 -37.72782 144.90100 261 ft 12 kts 88°
2026-04-13 07:28 -37.72778 144.90215 261 ft 14 kts 89°
2026-04-13 07:28 -37.72775 144.90339 261 ft 15 kts 83°
2026-04-13 07:28 -37.72784 144.90471 260 ft 16 kts 103°
2026-04-13 07:28 -37.72808 144.90614 259 ft 17 kts 102°
2026-04-13 07:29 -37.72834 144.90769 258 ft 19 kts 101°
2026-04-13 07:29 -37.72860 144.90935 256 ft 20 kts 102°
2026-04-13 07:29 -37.72889 144.91111 254 ft 22 kts 101°
2026-04-13 07:29 -37.72913 144.91255 250 ft 15 kts 102°
2026-04-13 07:30 -37.72958 144.91380 247 ft 13 kts 136°
2026-04-13 07:30 -37.72976 144.91398 246 ft 0 kts 146°
2026-04-13 07:30 -37.72981 144.91401 246 ft 5 kts 148°
2026-04-13 07:31 -37.73024 144.91435 244 ft 9 kts 153°
2026-04-13 07:31 -37.73077 144.91398 244 ft 10 kts 258°
2026-04-13 07:31 -37.73093 144.90886 249 ft 119 kts 270°
2026-04-13 07:31 -37.73098 144.89715 1282 ft 138 kts 270°
2026-04-13 07:32 -37.73096 144.88353 2131 ft 177 kts 274°
2026-04-13 07:32 -37.72916 144.86650 2664 ft 212 kts 278°
2026-04-13 07:32 -37.72864 144.84697 3199 ft 230 kts 264°
2026-04-13 07:32 -37.73056 144.82738 3728 ft 220 kts 261°
2026-04-13 07:33 -37.73499 144.80871 3980 ft 227 kts 251°
2026-04-13 07:33 -37.74008 144.78931 4006 ft 238 kts 251°
2026-04-13 07:33 -37.74577 144.76929 4011 ft 246 kts 251°
2026-04-13 07:34 -37.75272 144.72705 3984 ft 254 kts 284°
2026-04-13 07:34 -37.74259 144.70917 3985 ft 257 kts 321°
2026-04-13 07:34 -37.72650 144.70004 3996 ft 259 kts 341°
2026-04-13 07:34 -37.70834 144.69879 3981 ft 264 kts 12°
2026-04-13 07:35 -37.69295 144.71120 3992 ft 266 kts 45°
2026-04-13 07:35 -37.68314 144.73084 3989 ft 268 kts 68°